owner,sensor,date,latitude,longitude,vertical_datum,direction_of_sea_water_velocity,sea_water_speed,upward_sea_water_velocity,qcFlag 
TABS,ioos:station:TABS:H:1,2006-10-01T00:00:00Z,27.8674,-96.5433,2.0,224.2647882,13.78264488,-99999.0,'11111222,11111222,99999999' 
TABS,ioos:station:TABS:H:1,2006-10-01T00:30:00Z,27.8674,-96.5433,2.0,224.9565075,9.383309651,-99999.0,'11133222,11111222,99999999' 
TABS,ioos:station:TABS:H:1,2006-10-01T01:00:00Z,27.8674,-96.5433,2.0,214.7969165,6.746413862,-99999.0,'11133222,11111222,99999999' 
TABS,ioos:station:TABS:H:1,2006-10-01T01:30:00Z,27.8674,-96.5433,2.0,230.2133407,11.4388155,-99999.0,'11111222,11111222,99999999' 
TABS,ioos:station:TABS:H:1,2006-10-01T02:00:00Z,27.8674,-96.5433,2.0,242.8680261,10.85440464,-99999.0,'11111222,11111222,99999999' 
TABS,ioos:station:TABS:H:1,2006-10-01T02:30:00Z,27.8674,-96.5433,2.0,237.2403543,11.43942743,-99999.0,'11111222,11111222,99999999' 
TABS,ioos:station:TABS:H:1,2006-10-01T03:00:00Z,27.8674,-96.5433,2.0,224.6393391,6.745932108,-99999.0,'11133222,11111222,99999999' 
TABS,ioos:station:TABS:H:1,2006-10-01T03:30:00Z,27.8674,-96.5433,2.0,272.0527996,5.863761591,-99999.0,'11133222,11111222,99999999' 
TABS,ioos:station:TABS:H:1,2006-10-01T04:00:00Z,27.8674,-96.5433,2.0,209.8710118,6.746265634,-99999.0,'11133222,11111222,99999999' 
TABS,ioos:station:TABS:H:1,2006-10-01T04:30:00Z,27.8674,-96.5433,2.0,262.9627434,6.448573486,-99999.0,'11133222,11111222,99999999' 
TABS,ioos:station:TABS:H:1,2006-10-01T05:00:00Z,27.8674,-96.5433,2.0,233.7353247,5.866327642,-99999.0,'11133222,11111222,99999999' 
TABS,ioos:station:TABS:H:1,2006-10-01T05:30:00Z,27.8674,-96.5433,2.0,263.9594748,6.747458781,-99999.0,'11133222,11111222,99999999' 
TABS,ioos:station:TABS:H:1,2006-10-01T06:00:00Z,27.8674,-96.5433,2.0,263.6414355,3.52166154,-99999.0,'11133222,11111222,99999999' 
TABS,ioos:station:TABS:H:1,2006-10-01T06:30:00Z,27.8674,-96.5433,2.0,295.9426557,2.057304061,-99999.0,'11133222,11111222,99999999' 
TABS,ioos:station:TABS:H:1,2006-10-01T07:00:00Z,27.8674,-96.5433,2.0,295.0678257,2.053411795,-99999.0,'11133222,11111222,99999999' 
TABS,ioos:station:TABS:H:1,2006-10-01T07:30:00Z,27.8674,-96.5433,2.0,147.9258637,0.885098865,-99999.0,'11133222,11111222,99999999' 
TABS,ioos:station:TABS:H:1,2006-10-01T08:00:00Z,27.8674,-96.5433,2.0,56.41852561,1.464411144,-99999.0,'11133222,11111222,99999999' 
TABS,ioos:station:TABS:H:1,2006-10-01T08:30:00Z,27.8674,-96.5433,2.0,66.9296417,1.760823671,-99999.0,'11133222,11111222,99999999' 
TABS,ioos:station:TABS:H:1,2006-10-01T09:00:00Z,27.8674,-96.5433,2.0,147.9785391,3.809632528,-99999.0,'11133222,11111222,99999999' 
TABS,ioos:station:TABS:H:1,2006-10-01T09:30:00Z,27.8674,-96.5433,2.0,143.6982982,6.452317413,-99999.0,'11133222,11111222,99999999' 
TABS,ioos:station:TABS:H:1,2006-10-01T10:00:00Z,27.8674,-96.5433,2.0,143.7318454,10.85259877,-99999.0,'11111222,11111222,99999999' 
TABS,ioos:station:TABS:H:1,2006-10-01T10:30:00Z,27.8674,-96.5433,2.0,139.863453,9.090770044,-99999.0,'11133222,11111222,99999999' 
TABS,ioos:station:TABS:H:1,2006-10-01T11:00:00Z,27.8674,-96.5433,2.0,132.827653,8.208337225,-99999.0,'11133222,11111222,99999999' 
TABS,ioos:station:TABS:H:1,2006-10-01T11:30:00Z,27.8674,-96.5433,2.0,129.9766272,5.572189875,-99999.0,'11133222,11111222,99999999' 
TABS,ioos:station:TABS:H:1,2006-10-01T12:00:00Z,27.8674,-96.5433,2.0,137.7643597,9.089829481,-99999.0,'11133222,11111222,99999999' 
TABS,ioos:station:TABS:H:1,2006-10-01T12:30:00Z,27.8674,-96.5433,2.0,140.5331441,9.093338221,-99999.0,'11133222,11111222,99999999' 
TABS,ioos:station:TABS:H:1,2006-10-01T13:00:00Z,27.8674,-96.5433,2.0,133.1706343,9.968214484,-99999.0,'11133222,11111222,99999999' 
TABS,ioos:station:TABS:H:1,2006-10-01T13:30:00Z,27.8674,-96.5433,2.0,141.2805283,12.02226268,-99999.0,'11111222,11111222,99999999' 
TABS,ioos:station:TABS:H:1,2006-10-01T14:00:00Z,27.8674,-96.5433,2.0,143.716031,12.31864441,-99999.0,'11111222,11111222,99999999' 
TABS,ioos:station:TABS:H:1,2006-10-01T14:30:00Z,27.8674,-96.5433,2.0,169.4001567,14.08025923,-99999.0,'11111222,11111222,99999999' 
TABS,ioos:station:TABS:H:1,2006-10-01T15:00:00Z,27.8674,-96.5433,2.0,147.2489895,13.19809077,-99999.0,'11111222,11111222,99999999' 
TABS,ioos:station:TABS:H:1,2006-10-01T15:30:00Z,27.8674,-96.5433,2.0,139.863453,9.090770044,-99999.0,'11133222,11111222,99999999' 
TABS,ioos:station:TABS:H:1,2006-10-01T16:00:00Z,27.8674,-96.5433,2.0,154.62403,13.79056562,-99999.0,'11111222,11111222,99999999' 
TABS,ioos:station:TABS:H:1,2006-10-01T16:30:00Z,27.8674,-96.5433,2.0,150.4190587,9.095504384,-99999.0,'11133222,11111222,99999999' 
TABS,ioos:station:TABS:H:1,2006-10-01T17:00:00Z,27.8674,-96.5433,2.0,134.5857166,8.803709445,-99999.0,'11133222,11111222,99999999' 
TABS,ioos:station:TABS:H:1,2006-10-01T17:30:00Z,27.8674,-96.5433,2.0,147.2459611,12.90127513,-99999.0,'11111222,11111222,99999999' 
TABS,ioos:station:TABS:H:1,2006-10-01T18:00:00Z,27.8674,-96.5433,2.0,131.0570955,5.861646526,-99999.0,'11133222,11111222,99999999' 
TABS,ioos:station:TABS:H:1,2006-10-01T18:30:00Z,27.8674,-96.5433,2.0,148.6688307,9.096471844,-99999.0,'11133222,11111222,99999999' 
TABS,ioos:station:TABS:H:1,2006-10-01T19:00:00Z,27.8674,-96.5433,2.0,103.941455,4.399602255,-99999.0,'11133222,11111222,99999999' 
TABS,ioos:station:TABS:H:1,2006-10-01T19:30:00Z,27.8674,-96.5433,2.0,155.9976965,4.400511334,-99999.0,'11133222,11111222,99999999' 
TABS,ioos:station:TABS:H:1,2006-10-01T20:00:00Z,27.8674,-96.5433,2.0,159.164675,2.642820463,-99999.0,'11133222,11111222,99999999' 
TABS,ioos:station:TABS:H:1,2006-10-01T20:30:00Z,27.8674,-96.5433,2.0,146.5599985,3.810826682,-99999.0,'11133222,11111222,99999999' 
TABS,ioos:station:TABS:H:1,2006-10-01T21:00:00Z,27.8674,-96.5433,2.0,181.747947,5.572593651,-99999.0,'11133222,11111222,99999999' 
TABS,ioos:station:TABS:H:1,2006-10-01T21:30:00Z,27.8674,-96.5433,2.0,159.1826175,6.162280422,-99999.0,'11133222,11111222,99999999' 
TABS,ioos:station:TABS:H:1,2006-10-01T22:00:00Z,27.8674,-96.5433,2.0,203.1494387,6.155647813,-99999.0,'11133222,11111222,99999999' 
TABS,ioos:station:TABS:H:1,2006-10-01T22:30:00Z,27.8674,-96.5433,2.0,234.068102,4.396589587,-99999.0,'11133222,11111222,99999999' 
TABS,ioos:station:TABS:H:1,2006-10-01T23:00:00Z,27.8674,-96.5433,2.0,168.0188553,3.516603475,-99999.0,'11133222,11111222,99999999' 
TABS,ioos:station:TABS:H:1,2006-10-01T23:30:00Z,27.8674,-96.5433,2.0,178.6026118,4.101219331,-99999.0,'11133222,11111222,99999999' 
TABS,ioos:station:TABS:H:1,2006-10-02T00:00:00Z,27.8674,-96.5433,2.0,277.4655943,1.462395295,-99999.0,'11133222,11111222,99999999' 
TABS,ioos:station:TABS:H:1,2006-10-02T00:30:00Z,27.8674,-96.5433,2.0,240.3758996,1.173371212,-99999.0,'11133222,11111222,99999999' 
TABS,ioos:station:TABS:H:1,2006-10-02T01:00:00Z,27.8674,-96.5433,2.0,255.0179815,1.469965986,-99999.0,'11133222,11111222,99999999' 
TABS,ioos:station:TABS:H:1,2006-10-02T01:30:00Z,27.8674,-96.5433,2.0,236.941668,7.039573851,-99999.0,'11133222,11111222,99999999' 
TABS,ioos:station:TABS:H:1,2006-10-02T02:00:00Z,27.8674,-96.5433,2.0,273.4550208,3.816935944,-99999.0,'11133222,11111222,99999999' 
TABS,ioos:station:TABS:H:1,2006-10-02T02:30:00Z,27.8674,-96.5433,2.0,270.0004209,4.99,-99999.0,'11133222,11111222,99999999' 
TABS,ioos:station:TABS:H:1,2006-10-02T03:00:00Z,27.8674,-96.5433,2.0,256.2725146,6.742588524,-99999.0,'11133222,11111222,99999999' 
TABS,ioos:station:TABS:H:1,2006-10-02T03:30:00Z,27.8674,-96.5433,2.0,304.8190195,3.520255673,-99999.0,'11133222,11111222,99999999' 
TABS,ioos:station:TABS:H:1,2006-10-02T04:00:00Z,27.8674,-96.5433,2.0,316.7432969,6.741846928,-99999.0,'11133222,11111222,99999999' 
TABS,ioos:station:TABS:H:1,2006-10-02T04:30:00Z,27.8674,-96.5433,2.0,314.3100401,2.347764895,-99999.0,'11133222,11111222,99999999' 
TABS,ioos:station:TABS:H:1,2006-10-02T05:00:00Z,27.8674,-96.5433,2.0,342.3765847,4.69012793,-99999.0,'11133222,11111222,99999999' 
TABS,ioos:station:TABS:H:1,2006-10-02T05:30:00Z,27.8674,-96.5433,2.0,314.6051796,4.101316862,-99999.0,'11133222,11111222,99999999' 
TABS,ioos:station:TABS:H:1,2006-10-02T06:00:00Z,27.8674,-96.5433,2.0,353.6024789,4.397385587,-99999.0,'11133222,11111222,99999999' 
TABS,ioos:station:TABS:H:1,2006-10-02T06:30:00Z,27.8674,-96.5433,2.0,109.6537781,0.297321375,-99999.0,'11133222,11111222,99999999' 
TABS,ioos:station:TABS:H:1,2006-10-02T07:00:00Z,27.8674,-96.5433,2.0,32.28762214,6.458645369,-99999.0,'11133222,11111222,99999999' 
TABS,ioos:station:TABS:H:1,2006-10-02T07:30:00Z,27.8674,-96.5433,2.0,10.4259946,3.812951613,-99999.0,'11133222,11111222,99999999' 
TABS,ioos:station:TABS:H:1,2006-10-02T08:00:00Z,27.8674,-96.5433,2.0,22.31959866,2.053874388,-99999.0,'11133222,11111222,99999999' 
TABS,ioos:station:TABS:H:1,2006-10-02T08:30:00Z,27.8674,-96.5433,2.0,16.49991039,4.401238462,-99999.0,'11133222,11111222,99999999' 
TABS,ioos:station:TABS:H:1,2006-10-02T09:00:00Z,27.8674,-96.5433,2.0,52.44638554,2.346167087,-99999.0,'11133222,11111222,99999999' 
TABS,ioos:station:TABS:H:1,2006-10-02T09:30:00Z,27.8674,-96.5433,2.0,50.53206607,5.868032038,-99999.0,'11133222,11111222,99999999' 
TABS,ioos:station:TABS:H:1,2006-10-02T10:00:00Z,27.8674,-96.5433,2.0,71.31813183,2.93462093,-99999.0,'11133222,11111222,99999999' 
TABS,ioos:station:TABS:H:1,2006-10-02T10:30:00Z,27.8674,-96.5433,2.0,63.19677678,6.453347968,-99999.0,'11133222,11111222,99999999' 
TABS,ioos:station:TABS:H:1,2006-10-02T11:00:00Z,27.8674,-96.5433,2.0,90.35476727,3.230061919,-99999.0,'11133222,11111222,99999999' 
TABS,ioos:station:TABS:H:1,2006-10-02T11:30:00Z,27.8674,-96.5433,2.0,23.78218527,3.223740064,-99999.0,'11133222,11111222,99999999' 
TABS,ioos:station:TABS:H:1,2006-10-02T12:00:00Z,27.8674,-96.5433,2.0,37.23017835,3.818075431,-99999.0,'11133222,11111222,99999999' 
TABS,ioos:station:TABS:H:1,2006-10-02T12:30:00Z,27.8674,-96.5433,2.0,36.47912199,6.156143273,-99999.0,'11133222,11111222,99999999' 
TABS,ioos:station:TABS:H:1,2006-10-02T13:00:00Z,27.8674,-96.5433,2.0,117.7281926,2.643577122,-99999.0,'11133222,11111222,99999999' 
TABS,ioos:station:TABS:H:1,2006-10-02T13:30:00Z,27.8674,-96.5433,2.0,52.62736305,4.102157969,-99999.0,'11133222,11111222,99999999' 
TABS,ioos:station:TABS:H:1,2006-10-02T14:00:00Z,27.8674,-96.5433,2.0,131.001862,2.636854186,-99999.0,'11133222,11111222,99999999' 
TABS,ioos:station:TABS:H:1,2006-10-02T14:30:00Z,27.8674,-96.5433,2.0,85.02258072,6.454339625,-99999.0,'11133222,11111222,99999999' 
TABS,ioos:station:TABS:H:1,2006-10-02T15:00:00Z,27.8674,-96.5433,2.0,37.91322639,2.63643699,-99999.0,'11133222,11111222,99999999' 
TABS,ioos:station:TABS:H:1,2006-10-02T15:30:00Z,27.8674,-96.5433,2.0,106.1113955,6.162020772,-99999.0,'11133222,11111222,99999999' 
TABS,ioos:station:TABS:H:1,2006-10-02T16:00:00Z,27.8674,-96.5433,2.0,44.84649797,2.637517772,-99999.0,'11133222,11111222,99999999' 
TABS,ioos:station:TABS:H:1,2006-10-02T16:30:00Z,27.8674,-96.5433,2.0,104.8682466,1.169144987,-99999.0,'11133222,11111222,99999999' 
TABS,ioos:station:TABS:H:1,2006-10-02T17:00:00Z,27.8674,-96.5433,2.0,94.23638489,3.519616456,-99999.0,'11133222,11111222,99999999' 
TABS,ioos:station:TABS:H:1,2006-10-02T17:30:00Z,27.8674,-96.5433,2.0,31.24392972,1.754451481,-99999.0,'11133222,11111222,99999999' 
TABS,ioos:station:TABS:H:1,2006-10-02T18:00:00Z,27.8674,-96.5433,2.0,66.00260227,4.991442677,-99999.0,'11133222,11111222,99999999' 
TABS,ioos:station:TABS:H:1,2006-10-02T18:30:00Z,27.8674,-96.5433,2.0,60.37632052,4.10679924,-99999.0,'11133222,11111222,99999999' 
TABS,ioos:station:TABS:H:1,2006-10-02T19:00:00Z,27.8674,-96.5433,2.0,35.82800303,5.278872986,-99999.0,'11133222,11111222,99999999' 
TABS,ioos:station:TABS:H:1,2006-10-02T19:30:00Z,27.8674,-96.5433,2.0,58.66330262,2.634274094,-99999.0,'11133222,11111222,99999999' 
TABS,ioos:station:TABS:H:1,2006-10-02T20:00:00Z,27.8674,-96.5433,2.0,36.17760745,6.454471318,-99999.0,'11133222,11111222,99999999' 
TABS,ioos:station:TABS:H:1,2006-10-02T20:30:00Z,27.8674,-96.5433,2.0,55.12655106,7.922808845,-99999.0,'11133222,11111222,99999999' 
TABS,ioos:station:TABS:H:1,2006-10-02T21:00:00Z,27.8674,-96.5433,2.0,28.07705032,7.627647082,-99999.0,'11133222,11111222,99999999' 
TABS,ioos:station:TABS:H:1,2006-10-02T21:30:00Z,27.8674,-96.5433,2.0,37.18970909,6.452100433,-99999.0,'11133222,11111222,99999999' 
TABS,ioos:station:TABS:H:1,2006-10-02T22:00:00Z,27.8674,-96.5433,2.0,35.85848638,4.984776825,-99999.0,'11133222,11111222,99999999' 
TABS,ioos:station:TABS:H:1,2006-10-02T22:30:00Z,27.8674,-96.5433,2.0,342.8017095,3.51727167,-99999.0,'11133222,11111222,99999999' 
TABS,ioos:station:TABS:H:1,2006-10-02T23:00:00Z,27.8674,-96.5433,2.0,313.6199648,2.348275963,-99999.0,'11133222,11111222,99999999' 
TABS,ioos:station:TABS:H:1,2006-10-02T23:30:00Z,27.8674,-96.5433,2.0,28.02155474,2.639412813,-99999.0,'11133222,11111222,99999999' 
TABS,ioos:station:TABS:H:1,2006-10-03T00:00:00Z,27.8674,-96.5433,2.0,336.5016997,1.755591069,-99999.0,'11133222,11111222,99999999' 
TABS,ioos:station:TABS:H:1,2006-10-03T00:30:00Z,27.8674,-96.5433,2.0,29.7719595,2.638219096,-99999.0,'11133222,11111222,99999999' 
TABS,ioos:station:TABS:H:1,2006-10-03T01:00:00Z,27.8674,-96.5433,2.0,37.13104808,0.878009112,-99999.0,'11133222,11111222,99999999' 
TABS,ioos:station:TABS:H:1,2006-10-03T01:30:00Z,27.8674,-96.5433,2.0,55.87513805,1.461677119,-99999.0,'11133222,11111222,99999999' 
TABS,ioos:station:TABS:H:1,2006-10-03T02:00:00Z,27.8674,-96.5433,2.0,17.07413656,1.464547712,-99999.0,'11133222,11111222,99999999' 
TABS,ioos:station:TABS:H:1,2006-10-03T02:30:00Z,27.8674,-96.5433,2.0,264.4002528,2.049780476,-99999.0,'11133222,11111222,99999999' 
TABS,ioos:station:TABS:H:1,2006-10-03T03:00:00Z,27.8674,-96.5433,2.0,324.0687333,4.396589587,-99999.0,'11133222,11111222,99999999' 
TABS,ioos:station:TABS:H:1,2006-10-03T03:30:00Z,27.8674,-96.5433,2.0,317.4898628,2.930187707,-99999.0,'11133222,11111222,99999999' 
TABS,ioos:station:TABS:H:1,2006-10-03T04:00:00Z,27.8674,-96.5433,2.0,328.6635131,2.634274094,-99999.0,'11133222,11111222,99999999' 
TABS,ioos:station:TABS:H:1,2006-10-03T04:30:00Z,27.8674,-96.5433,2.0,335.7280074,4.695029286,-99999.0,'11133222,11111222,99999999' 
TABS,ioos:station:TABS:H:1,2006-10-03T05:00:00Z,27.8674,-96.5433,2.0,351.8701271,5.868986284,-99999.0,'11133222,11111222,99999999' 
TABS,ioos:station:TABS:H:1,2006-10-03T05:30:00Z,27.8674,-96.5433,2.0,335.3408431,9.683057368,-99999.0,'11133222,11111222,99999999' 
TABS,ioos:station:TABS:H:1,2006-10-03T06:00:00Z,27.8674,-96.5433,2.0,336.7482567,7.041967055,-99999.0,'11133222,11111222,99999999' 
TABS,ioos:station:TABS:H:1,2006-10-03T06:30:00Z,27.8674,-96.5433,2.0,331.4344405,2.049487741,-99999.0,'11133222,11111222,99999999' 
TABS,ioos:station:TABS:H:1,2006-10-03T07:00:00Z,27.8674,-96.5433,2.0,1.118032427,2.050390207,-99999.0,'11133222,11111222,99999999' 
TABS,ioos:station:TABS:H:1,2006-10-03T07:30:00Z,27.8674,-96.5433,2.0,108.4349057,1.170042734,-99999.0,'11133222,11111222,99999999' 
TABS,ioos:station:TABS:H:1,2006-10-03T08:00:00Z,27.8674,-96.5433,2.0,337.4004424,4.397692577,-99999.0,'11133222,11111222,99999999' 
TABS,ioos:station:TABS:H:1,2006-10-03T08:30:00Z,27.8674,-96.5433,2.0,164.4757148,2.054969586,-99999.0,'11133222,11111222,99999999' 
TABS,ioos:station:TABS:H:1,2006-10-03T09:00:00Z,27.8674,-96.5433,2.0,208.3761419,4.102998903,-99999.0,'11133222,11111222,99999999' 
TABS,ioos:station:TABS:H:1,2006-10-03T09:30:00Z,27.8674,-96.5433,2.0,332.8895651,2.347977853,-99999.0,'11133222,11111222,99999999' 
TABS,ioos:station:TABS:H:1,2006-10-03T10:00:00Z,27.8674,-96.5433,2.0,67.65528496,1.762328006,-99999.0,'11133222,11111222,99999999' 
TABS,ioos:station:TABS:H:1,2006-10-03T10:30:00Z,27.8674,-96.5433,2.0,100.1590322,1.75755512,-99999.0,'11133222,11111222,99999999' 
TABS,ioos:station:TABS:H:1,2006-10-03T11:00:00Z,27.8674,-96.5433,2.0,38.30374327,3.517101079,-99999.0,'11133222,11111222,99999999' 
TABS,ioos:station:TABS:H:1,2006-10-03T11:30:00Z,27.8674,-96.5433,2.0,353.9754802,7.622099448,-99999.0,'11133222,11111222,99999999' 
TABS,ioos:station:TABS:H:1,2006-10-03T12:00:00Z,27.8674,-96.5433,2.0,40.38946669,3.518636099,-99999.0,'11133222,11111222,99999999' 
TABS,ioos:station:TABS:H:1,2006-10-03T12:30:00Z,27.8674,-96.5433,2.0,20.63243237,2.639280205,-99999.0,'11133222,11111222,99999999' 
TABS,ioos:station:TABS:H:1,2006-10-03T13:00:00Z,27.8674,-96.5433,2.0,49.84993779,2.341836886,-99999.0,'11133222,11111222,99999999' 
TABS,ioos:station:TABS:H:1,2006-10-03T13:30:00Z,27.8674,-96.5433,2.0,2.404913858,3.8133581,-99999.0,'11133222,11111222,99999999' 
TABS,ioos:station:TABS:H:1,2006-10-03T14:00:00Z,27.8674,-96.5433,2.0,324.4626158,1.462395295,-99999.0,'11133222,11111222,99999999' 
TABS,ioos:station:TABS:H:1,2006-10-03T14:30:00Z,27.8674,-96.5433,2.0,329.4159621,4.402465218,-99999.0,'11133222,11111222,99999999' 
TABS,ioos:station:TABS:H:1,2006-10-03T15:00:00Z,27.8674,-96.5433,2.0,193.091652,0.882949602,-99999.0,'11133222,11111222,99999999' 
TABS,ioos:station:TABS:H:1,2006-10-03T15:30:00Z,27.8674,-96.5433,2.0,339.9441626,4.694699138,-99999.0,'11133222,11111222,99999999' 
TABS,ioos:station:TABS:H:1,2006-10-03T16:00:00Z,27.8674,-96.5433,2.0,254.1882451,2.34887207,-99999.0,'11133222,11111222,99999999' 
TABS,ioos:station:TABS:H:1,2006-10-03T16:30:00Z,27.8674,-96.5433,2.0,285.1243929,4.982579653,-99999.0,'11133222,11111222,99999999' 
TABS,ioos:station:TABS:H:1,2006-10-03T17:00:00Z,27.8674,-96.5433,2.0,90.0,0.29,-99999.0,'11133222,11111222,99999999' 
TABS,ioos:station:TABS:H:1,2006-10-03T17:30:00Z,27.8674,-96.5433,2.0,215.4521652,2.344717467,-99999.0,'11133222,11111222,99999999' 
TABS,ioos:station:TABS:H:1,2006-10-03T18:00:00Z,27.8674,-96.5433,2.0,274.2368058,3.519616456,-99999.0,'11133222,11111222,99999999' 
TABS,ioos:station:TABS:H:1,2006-10-03T18:30:00Z,27.8674,-96.5433,2.0,196.8549999,5.276684565,-99999.0,'11133222,11111222,99999999' 
TABS,ioos:station:TABS:H:1,2006-10-03T19:00:00Z,27.8674,-96.5433,2.0,220.0556215,2.051170398,-99999.0,'11133222,11111222,99999999' 
TABS,ioos:station:TABS:H:1,2006-10-03T19:30:00Z,27.8674,-96.5433,2.0,264.6710093,8.506762016,-99999.0,'11133222,11111222,99999999' 
TABS,ioos:station:TABS:H:1,2006-10-03T20:00:00Z,27.8674,-96.5433,2.0,239.7061952,5.570655258,-99999.0,'11133222,11111222,99999999' 
TABS,ioos:station:TABS:H:1,2006-10-03T20:30:00Z,27.8674,-96.5433,2.0,264.3667199,7.335420915,-99999.0,'11133222,11111222,99999999' 
TABS,ioos:station:TABS:H:1,2006-10-03T21:00:00Z,27.8674,-96.5433,2.0,266.7636941,8.503558079,-99999.0,'11133222,11111222,99999999' 
TABS,ioos:station:TABS:H:1,2006-10-03T21:30:00Z,27.8674,-96.5433,2.0,259.0431636,7.629062852,-99999.0,'11133222,11111222,99999999' 
TABS,ioos:station:TABS:H:1,2006-10-03T22:00:00Z,27.8674,-96.5433,2.0,292.1192454,7.037961353,-99999.0,'11133222,11111222,99999999' 
TABS,ioos:station:TABS:H:1,2006-10-03T22:30:00Z,27.8674,-96.5433,2.0,255.2266004,7.921868466,-99999.0,'11133222,11111222,99999999' 
TABS,ioos:station:TABS:H:1,2006-10-03T23:00:00Z,27.8674,-96.5433,2.0,269.608933,8.800204543,-99999.0,'11133222,11111222,99999999' 
TABS,ioos:station:TABS:H:1,2006-10-03T23:30:00Z,27.8674,-96.5433,2.0,263.6594022,7.334861962,-99999.0,'11133222,11111222,99999999' 
TABS,ioos:station:TABS:H:1,2006-10-04T00:00:00Z,27.8674,-96.5433,2.0,253.0553017,8.50940656,-99999.0,'11133222,11111222,99999999' 
TABS,ioos:station:TABS:H:1,2006-10-04T00:30:00Z,27.8674,-96.5433,2.0,265.0389177,8.210755142,-99999.0,'11133222,11111222,99999999' 
TABS,ioos:station:TABS:H:1,2006-10-04T01:00:00Z,27.8674,-96.5433,2.0,270.6736643,8.510587524,-99999.0,'11133222,11111222,99999999' 
TABS,ioos:station:TABS:H:1,2006-10-04T01:30:00Z,27.8674,-96.5433,2.0,280.4937454,11.14641198,-99999.0,'11111222,11111222,99999999' 
TABS,ioos:station:TABS:H:1,2006-10-04T02:00:00Z,27.8674,-96.5433,2.0,267.8460222,14.37014962,-99999.0,'11111222,11111222,99999999' 
TABS,ioos:station:TABS:H:1,2006-10-04T02:30:00Z,27.8674,-96.5433,2.0,286.492349,8.207667147,-99999.0,'11133222,11111222,99999999' 
TABS,ioos:station:TABS:H:1,2006-10-04T03:00:00Z,27.8674,-96.5433,2.0,297.4136012,9.969483437,-99999.0,'11133222,11111222,99999999' 
TABS,ioos:station:TABS:H:1,2006-10-04T03:30:00Z,27.8674,-96.5433,2.0,298.4248222,9.096642238,-99999.0,'11133222,11111222,99999999' 
TABS,ioos:station:TABS:H:1,2006-10-04T04:00:00Z,27.8674,-96.5433,2.0,279.8196986,7.915964881,-99999.0,'11133222,11111222,99999999' 
TABS,ioos:station:TABS:H:1,2006-10-04T04:30:00Z,27.8674,-96.5433,2.0,285.7639991,9.091941487,-99999.0,'11133222,11111222,99999999' 
TABS,ioos:station:TABS:H:1,2006-10-04T05:00:00Z,27.8674,-96.5433,2.0,280.1741465,8.209074247,-99999.0,'11133222,11111222,99999999' 
TABS,ioos:station:TABS:H:1,2006-10-04T05:30:00Z,27.8674,-96.5433,2.0,303.3496448,10.25936158,-99999.0,'11111222,11111222,99999999' 
TABS,ioos:station:TABS:H:1,2006-10-04T06:00:00Z,27.8674,-96.5433,2.0,288.2522741,7.918383673,-99999.0,'11133222,11111222,99999999' 
TABS,ioos:station:TABS:H:1,2006-10-04T06:30:00Z,27.8674,-96.5433,2.0,297.0256061,5.567988865,-99999.0,'11133222,11111222,99999999' 
TABS,ioos:station:TABS:H:1,2006-10-04T07:00:00Z,27.8674,-96.5433,2.0,276.9871091,4.110523081,-99999.0,'11133222,11111222,99999999' 
TABS,ioos:station:TABS:H:1,2006-10-04T07:30:00Z,27.8674,-96.5433,2.0,293.4670732,6.453781837,-99999.0,'11133222,11111222,99999999' 
TABS,ioos:station:TABS:H:1,2006-10-04T08:00:00Z,27.8674,-96.5433,2.0,272.0426561,6.454099472,-99999.0,'11133222,11111222,99999999' 
TABS,ioos:station:TABS:H:1,2006-10-04T08:30:00Z,27.8674,-96.5433,2.0,283.3476529,6.454339625,-99999.0,'11133222,11111222,99999999' 
TABS,ioos:station:TABS:H:1,2006-10-04T09:00:00Z,27.8674,-96.5433,2.0,232.3118221,3.222328351,-99999.0,'11133222,11111222,99999999' 
TABS,ioos:station:TABS:H:1,2006-10-04T09:30:00Z,27.8674,-96.5433,2.0,282.9950073,5.870332188,-99999.0,'11133222,11111222,99999999' 
TABS,ioos:station:TABS:H:1,2006-10-04T10:00:00Z,27.8674,-96.5433,2.0,274.5613555,3.52115038,-99999.0,'11133222,11111222,99999999' 
TABS,ioos:station:TABS:H:1,2006-10-04T10:30:00Z,27.8674,-96.5433,2.0,239.7532487,4.109428184,-99999.0,'11133222,11111222,99999999' 
TABS,ioos:station:TABS:H:1,2006-10-04T11:00:00Z,27.8674,-96.5433,2.0,250.2486898,6.746917815,-99999.0,'11133222,11111222,99999999' 
TABS,ioos:station:TABS:H:1,2006-10-04T11:30:00Z,27.8674,-96.5433,2.0,216.1616806,4.694358316,-99999.0,'11133222,11111222,99999999' 
TABS,ioos:station:TABS:H:1,2006-10-04T12:00:00Z,27.8674,-96.5433,2.0,228.1576217,4.107456634,-99999.0,'11133222,11111222,99999999' 
TABS,ioos:station:TABS:H:1,2006-10-04T12:30:00Z,27.8674,-96.5433,2.0,291.3182833,2.64068173,-99999.0,'11133222,11111222,99999999' 
TABS,ioos:station:TABS:H:1,2006-10-04T13:00:00Z,27.8674,-96.5433,2.0,264.6603548,3.223988213,-99999.0,'11133222,11111222,99999999' 
TABS,ioos:station:TABS:H:1,2006-10-04T13:30:00Z,27.8674,-96.5433,2.0,282.9531551,4.104436624,-99999.0,'11133222,11111222,99999999' 
TABS,ioos:station:TABS:H:1,2006-10-04T14:00:00Z,27.8674,-96.5433,2.0,256.2633429,8.801738465,-99999.0,'11133222,11111222,99999999' 
TABS,ioos:station:TABS:H:1,2006-10-04T14:30:00Z,27.8674,-96.5433,2.0,240.4542044,4.988707247,-99999.0,'11133222,11111222,99999999' 
TABS,ioos:station:TABS:H:1,2006-10-04T15:00:00Z,27.8674,-96.5433,2.0,239.3440051,7.335100545,-99999.0,'11133222,11111222,99999999' 
TABS,ioos:station:TABS:H:1,2006-10-04T15:30:00Z,27.8674,-96.5433,2.0,253.4172559,9.39054844,-99999.0,'11133222,11111222,99999999' 
TABS,ioos:station:TABS:H:1,2006-10-04T16:00:00Z,27.8674,-96.5433,2.0,234.4809063,7.039957386,-99999.0,'11133222,11111222,99999999' 
TABS,ioos:station:TABS:H:1,2006-10-04T16:30:00Z,27.8674,-96.5433,2.0,230.5774553,8.80273253,-99999.0,'11133222,11111222,99999999' 
TABS,ioos:station:TABS:H:1,2006-10-04T17:00:00Z,27.8674,-96.5433,2.0,220.6804194,4.694379618,-99999.0,'11133222,11111222,99999999' 
TABS,ioos:station:TABS:H:1,2006-10-04T17:30:00Z,27.8674,-96.5433,2.0,260.8146316,12.90547171,-99999.0,'11111222,11111222,99999999' 
TABS,ioos:station:TABS:H:1,2006-10-04T18:00:00Z,27.8674,-96.5433,2.0,258.016457,9.680960696,-99999.0,'11133222,11111222,99999999' 